EW0401 Weather Reports


Display with metric or nautical units.
time (UTC)temp
F
wind
direction
speed
MPH
gust
MPH
rain 1hr
in
rain 24hr
in
rain mn
in
humidity
%
barometer
mb
20260903071605 84 0 0.0 2.0 0.00 0.00 0.00 86 1013.7
20260903064558 84 0 0.0 3.0 0.00 0.00 0.00 86 1014.2
20260903063108 84 0 0.0 2.0 0.00 0.00 0.00 86 1014.5
20260903061605 84 0 0.0 6.0 0.00 0.00 0.00 86 1014.6
20260903060111 84 0 0.0 2.0 0.00 0.00 0.00 86 1014.7
20260903054607 84 0 0.0 2.0 0.00 0.00 0.00 86 1014.9
20260903053101 84 0 0.0 3.0 0.00 0.00 0.00 86 1014.7
20260903051559 84 0 0.0 2.0 0.00 0.00 0.00 85 1014.9
20260903044600 84 170 0.0 1.0 0.00 0.00 0.00 85 1014.8
20260903043101 84 0 0.0 5.0 0.00 0.00 0.00 85 1015.1
20260903041604 85 0 0.0 3.0 0.00 0.00 0.00 86 1015.2
20260903040110 85 0 0.0 2.0 0.00 0.00 0.00 86 1015.4
20260903034607 85 0 0.0 2.0 0.00 0.00 0.00 85 1015.1
20260903033105 85 0 0.0 2.0 0.00 0.00 0.00 85 1015.1
20260903031611 85 0 0.0 2.0 0.00 0.00 0.00 85 1015.1
20260903030134 85 0 0.0 2.0 0.00 0.00 0.00 85 1015.1
20260903024603 85 0 0.0 4.0 0.00 0.00 0.00 85 1014.8
20260903023115 85 0 0.0 4.0 0.00 0.00 0.00 85 1014.6
20260903021601 85 0 0.0 3.0 0.00 0.00 0.00 85 1014.4
20260903020108 85 0 0.0 4.0 0.00 0.00 0.00 85 1014.1
20260903014620 85 209 0.0 6.0 0.00 0.00 0.00 85 1014.0
20260903013059 85 0 0.0 3.0 0.00 0.00 0.00 86 1014.3
20260903011605 85 0 0.0 4.0 0.00 0.00 0.00 85 1013.9
20260903010105 86 194 0.0 3.0 0.00 0.00 0.00 84 1013.4
20260903004605 86 0 0.0 7.0 0.00 0.00 0.00 84 1013.7
20260903003059 86 0 0.0 2.0 0.00 0.00 0.00 83 1014.0
20260903001609 87 0 0.0 4.0 0.00 0.00 0.00 82 1013.4
20260903000110 87 0 1.0 8.0 0.00 0.00 0.00 80 1012.8
20260902234559 88 167 0.0 7.0 0.00 0.00 0.00 79 1012.9
20260902233105 89 0 0.0 8.0 0.00 0.00 0.00 79 1013.1
20260902231603 90 208 1.0 8.0 0.00 0.00 0.00 76 1013.0
20260902230106 91 192 0.0 5.0 0.00 0.00 0.00 74 1013.0
20260902224601 92 186 1.0 6.0 0.00 0.04 0.00 72 1012.9
20260902223101 93 178 0.0 9.0 0.00 0.04 0.00 71 1013.1
20260902221618 92 196 0.0 8.0 0.00 0.04 0.00 74 1013.3
20260902220108 93 0 0.0 5.0 0.00 0.04 0.00 74 1013.1
20260902214601 93 192 0.0 7.0 0.00 0.11 0.00 73 1013.2
20260902213059 94 261 0.0 6.0 0.00 0.11 0.00 71 1013.3
20260902211601 94 0 0.0 6.0 0.00 0.11 0.00 72 1013.3
20260902210103 92 189 0.0 6.0 0.00 0.11 0.00 72 1013.4
20260902204616 92 0 0.0 4.0 0.00 0.11 0.00 72 1013.5
20260902203103 92 178 1.0 7.0 0.00 0.11 0.00 74 1013.6
20260902201603 93 0 0.0 7.0 0.00 0.11 0.00 74 1013.7
20260902200106 94 0 1.0 5.0 0.00 0.11 0.00 72 1014.0
20260902194625 95 182 1.0 7.0 0.00 0.16 0.00 62 1014.2
20260902193104 95 0 0.0 7.0 0.00 0.16 0.00 64 1014.2
20260902191608 94 252 0.0 6.0 0.00 0.16 0.00 67 1014.2
20260902190106 93 0 1.0 6.0 0.00 0.16 0.00 66 1014.3
20260902184605 93 253 2.0 6.0 0.00 0.16 0.00 67 1014.4
20260902183139 92 267 2.0 8.0 0.00 0.16 0.00 71 1014.6
20260902181610 92 0 0.0 5.0 0.00 0.16 0.00 74 1014.8
20260902180106 91 0 2.0 8.0 0.00 0.16 0.00 74 1015.1
20260902174606 91 274 1.0 7.0 0.00 0.16 0.00 74 1015.4
20260902173103 91 0 0.0 8.0 0.00 0.16 0.00 76 1015.5
20260902171626 90 257 2.0 8.0 0.00 0.16 0.00 77 1015.7
20260902170106 89 0 3.0 10.0 0.00 0.16 0.00 79 1015.8
20260902164633 88 236 1.0 6.0 0.00 0.16 0.00 79 1016.2
20260902163102 87 0 2.0 8.0 0.00 0.16 0.00 83 1016.2
20260902161607 86 0 1.0 4.0 0.00 0.16 0.00 84 1016.4
20260902160111 86 0 1.0 7.0 0.00 0.16 0.00 85 1016.4
20260902154609 85 0 0.0 4.0 0.00 0.16 0.00 86 1016.2
20260902153104 84 0 0.0 6.0 0.00 0.16 0.00 86 1016.0
20260902151603 84 0 0.0 6.0 0.00 0.16 0.00 86 1016.1
20260902144609 83 0 0.0 4.0 0.00 0.16 0.00 87 1015.7
20260902143058 82 0 0.0 3.0 0.00 0.16 0.00 86 1015.7
20260902141600 82 0 0.0 3.0 0.00 0.16 0.00 86 1015.7
20260902134605 81 0 0.0 2.0 0.00 0.16 0.00 85 1015.5
20260902133107 81 0 0.0 0.0 0.00 0.16 0.00 85 1015.6
20260902131610 81 222 0.0 2.0 0.00 0.16 0.00 84 1015.6
20260902130113 81 0 0.0 4.0 0.00 0.16 0.00 83 1015.4
20260902124601 81 0 1.0 5.0 0.00 0.16 0.00 84 1015.2
20260902123102 82 261 2.0 10.0 0.00 0.16 0.00 87 1014.7
20260902123033 82 264 2.0 9.0 0.00 0.16 0.00 87 1014.5
20260902123006 82 258 2.0 9.0 0.00 0.16 0.00 87 1014.4
20260902121601 82 259 1.0 8.0 0.00 0.16 0.00 88 1014.6
20260902120101 82 258 2.0 6.0 0.00 0.16 0.00 88 1013.7
20260902114619 82 259 1.0 8.0 0.00 0.16 0.00 88 1013.9
20260902113102 82 200 2.0 8.0 0.00 0.16 0.00 88 1014.0
20260902111604 82 273 2.0 7.0 0.00 0.16 0.00 87 1014.0
20260902110107 82 288 2.0 8.0 0.00 0.16 0.00 87 1014.0
20260902104602 82 0 2.0 8.0 0.00 0.16 0.00 87 1014.0
20260902103109 82 208 2.0 8.0 0.00 0.16 0.00 87 1014.0
20260902101600 82 227 1.0 7.0 0.00 0.16 0.00 87 1014.0
20260902094605 82 0 1.0 6.0 0.00 0.16 0.00 87 1013.9
20260902093059 82 0 2.0 7.0 0.00 0.16 0.00 87 1013.8
20260902091603 82 202 0.0 7.0 0.00 0.16 0.00 87 1013.7
20260902084601 82 270 2.0 8.0 0.00 0.16 0.00 86 1013.7
20260902083100 82 213 4.0 14.0 0.00 0.16 0.00 86 1013.6
20260902081559 82 213 1.0 10.0 0.00 0.16 0.00 86 1013.7
20260902074602 82 176 3.0 12.0 0.00 0.16 0.00 86 1013.8
20260902073101 82 289 1.0 8.0 0.00 0.16 0.00 87 1013.8